Satellite: NOAA-11
Catalog number: 19531
Epoch time:      09028.82551119
Element set:    0493
Inclination:      098.7882 deg
RA of node:       120.9273 deg
Eccentricity:    0.0011638
Arg of perigee:   141.7663 deg
Mean anomaly:     218.4329 deg
Mean motion:   14.14886451 rev/day
Decay rate:      -1.75e-06 rev/day^2
Epoch rev:           04981
Checksum:              318

Satellite: NOAA-12
Catalog number: 21263
Epoch time:      09028.92672973
Element set:    0007
Inclination:      098.7725 deg
RA of node:       036.9187 deg
Eccentricity:    0.0012144
Arg of perigee:   186.5515 deg
Mean anomaly:     173.5508 deg
Mean motion:   14.25564646 rev/day
Decay rate:        1.9e-07 rev/day^2
Epoch rev:           92055
Checksum:              317

Satellite: MET-3/5
Catalog number: 21655
Epoch time:      09028.97379620
Element set:    0664
Inclination:      082.5521 deg
RA of node:       304.8567 deg
Eccentricity:    0.0013109
Arg of perigee:   163.4466 deg
Mean anomaly:     196.7087 deg
Mean motion:   13.17017699 rev/day
Decay rate:        5.1e-07 rev/day^2
Epoch rev:           83930
Checksum:              327

Satellite: MET-2/21
Catalog number: 22782
Epoch time:      09028.82992841
Element set:    0365
Inclination:      082.5495 deg
RA of node:       292.5651 deg
Eccentricity:    0.0023045
Arg of perigee:   021.1826 deg
Mean anomaly:     339.0301 deg
Mean motion:   13.83634432 rev/day
Decay rate:        1.1e-07 rev/day^2
Epoch rev:           77833
Checksum:              296

Satellite: OKEAN-4
Catalog number: 23317
Epoch time:      09028.73950316
Element set:     813
Inclination:      082.5399 deg
RA of node:       104.6272 deg
Eccentricity:    0.0023939
Arg of perigee:   102.9593 deg
Mean anomaly:     257.4302 deg
Mean motion:   14.82670834 rev/day
Decay rate:       2.16e-06 rev/day^2
Epoch rev:           77170
Checksum:              305

Satellite: NOAA-14
Catalog number: 23455
Epoch time:      09028.74837164
Element set:    0494
Inclination:      098.9231 deg
RA of node:       106.8530 deg
Eccentricity:    0.0008904
Arg of perigee:   222.3787 deg
Mean anomaly:     137.6677 deg
Mean motion:   14.13757881 rev/day
Decay rate:       1.72e-06 rev/day^2
Epoch rev:           72622
Checksum:              328

Satellite: NOAA-15
Catalog number: 25338
Epoch time:      09028.86213207
Element set:    0794
Inclination:      098.5746 deg
RA of node:       021.2002 deg
Eccentricity:    0.0011609
Arg of perigee:   102.5796 deg
Mean anomaly:     257.6671 deg
Mean motion:   14.24743855 rev/day
Decay rate:       1.32e-06 rev/day^2
Epoch rev:           55693
Checksum:              309

Satellite: RESURS
Catalog number: 25394
Epoch time:      09029.61547765
Element set:     130
Inclination:      098.3589 deg
RA of node:       068.8981 deg
Eccentricity:    0.0000675
Arg of perigee:   279.3274 deg
Mean anomaly:     080.7829 deg
Mean motion:   14.24179822 rev/day
Decay rate:       -1.0e-08 rev/day^2
Epoch rev:           54867
Checksum:              339

Satellite: FENGYUN1
Catalog number: 25730
Epoch time:      09028.92352178
Element set:    0702
Inclination:      098.7431 deg
RA of node:       003.3329 deg
Eccentricity:    0.0021866
Arg of perigee:   251.4089 deg
Mean anomaly:     108.4706 deg
Mean motion:   14.07916935 rev/day
Decay rate:      -2.16e-06 rev/day^2
Epoch rev:           50072
Checksum:              291

Satellite: OKEAN-0
Catalog number: 25860
Epoch time:      09028.49340367
Element set:    0588
Inclination:      097.7713 deg
RA of node:       015.3376 deg
Eccentricity:    0.0000579
Arg of perigee:   046.5904 deg
Mean anomaly:     313.5349 deg
Mean motion:   14.73556115 rev/day
Decay rate:        3.4e-07 rev/day^2
Epoch rev:           51257
Checksum:              309

Satellite: NOAA-16
Catalog number: 26536
Epoch time:      09028.81865043
Element set:    0269
Inclination:      099.1731 deg
RA of node:       029.1345 deg
Eccentricity:    0.0010026
Arg of perigee:   315.7244 deg
Mean anomaly:     044.3102 deg
Mean motion:   14.12510226 rev/day
Decay rate:       1.61e-06 rev/day^2
Epoch rev:           43062
Checksum:              260

Satellite: NOAA-17
Catalog number: 27453
Epoch time:      09028.74116055
Element set:    0282
Inclination:      098.5053 deg
RA of node:       092.4953 deg
Eccentricity:    0.0011950
Arg of perigee:   166.3844 deg
Mean anomaly:     193.7643 deg
Mean motion:   14.24036269 rev/day
Decay rate:       -1.3e-07 rev/day^2
Epoch rev:           34290
Checksum:              303

Satellite: NOAA-18
Catalog number: 28654
Epoch time:      09028.80208039
Element set:    0766
Inclination:      098.8948 deg
RA of node:       333.2259 deg
Eccentricity:    0.0015026
Arg of perigee:   039.1925 deg
Mean anomaly:     321.0313 deg
Mean motion:   14.11229514 rev/day
Decay rate:        5.6e-07 rev/day^2
Epoch rev:           19029
Checksum:              304

/EX
SB KEPS @ AMSAT  $ORB09029.M
Orbital Elements  09029.MISC

HR AMSAT ORBITAL ELEMENTS FOR MANNED AND MISCELLANEOUS SATELLITES
FROM WA5QGD FORT WORTH,TX January 29, 2009
Send Subscribe/unsubscribe to KEPS at 
http://www.amsat.org/mailman/listinfo/keps
BID: ORB09029.M
TO ALL RADIO AMATEURS BT

Satellite: HUBBLE
Catalog number: 20580
Epoch time:      09028.97063548
Element set:    0329
Inclination:      028.4706 deg
RA of node:       290.5356 deg
Eccentricity:    0.0003688
Arg of perigee:   256.7207 deg
Mean anomaly:     103.2973 deg
Mean motion:   15.00450356 rev/day
Decay rate:       2.70e-06 rev/day^2
Epoch rev:           82892
Checksum:              302

Satellite: PO-34
Catalog number: 25520
Epoch time:      09029.53785378
Element set:     174
Inclination:      028.4602 deg
RA of node:       103.2752 deg
Eccentricity:    0.0005842
Arg of perigee:   228.8534 deg
Mean anomaly:     131.1558 deg
Mean motion:   15.17289502 rev/day
Decay rate:       3.23e-06 rev/day^2
Epoch rev:           56757
Checksum:              304

Satellite: ISS
Catalog number: 25544
Epoch time:      09029.86526398
Element set:     168
Inclination:      051.6437 deg
RA of node:       295.1098 deg
Eccentricity:    0.0007772
Arg of perigee:   326.4280 deg
Mean anomaly:     151.2455 deg
Mean motion:   15.70670522 rev/day
Decay rate:     1.0756e-04 rev/day^2
Epoch rev:           58419
Checksum:              321

Satellite: CO-58
Catalog number: 28895
Epoch time:      09028.71123364
Element set:     219
Inclination:      098.0807 deg
RA of node:       283.0965 deg
Eccentricity:    0.0018882
Arg of perigee:   066.9374 deg
Mean anomaly:     293.3849 deg
Mean motion:   14.59736544 rev/day
Decay rate:        4.2e-07 rev/day^2
Epoch rev:           17338
Checksum:              355

Satellite: FALCON
Catalog number: 30776
Epoch time:      09029.81568922
Element set:     492
Inclination:      035.4330 deg
RA of node:       218.8801 deg
Eccentricity:    0.0000571
Arg of perigee:   275.8146 deg
Mean anomaly:     084.2505 deg
Mean motion:   15.03156647 rev/day
Decay rate:       2.37e-06 rev/day^2
Epoch rev:           10426
Checksum:              287

Satellite: MAST
Catalog number: 31126
Epoch time:      09028.63185913
Element set:    0516
Inclination:      098.0090 deg
RA of node:       089.6949 deg
Eccentricity:    0.0094812
Arg of perigee:   353.6056 deg
Mean anomaly:     006.3924 deg
Mean motion:   14.53474363 rev/day
Decay rate:        1.0e-07 rev/day^2
Epoch rev:           09476
Checksum:              304

Satellite: CAPE1
Catalog number: 31130
Epoch time:      09029.63488202
Element set:     515
Inclination:      098.0115 deg
RA of node:       089.1483 deg
Eccentricity:    0.0103079
Arg of perigee:   355.0362 deg
Mean anomaly:     004.9808 deg
Mean motion:   14.52029713 rev/day
Decay rate:       1.31e-06 rev/day^2
Epoch rev:            9458
Checksum:              277

Satellite: COMPASS
Catalog number: 32787
Epoch time:      09029.78647547
Element set:     266
Inclination:      097.9625 deg
RA of node:       094.6702 deg
Eccentricity:    0.0016893
Arg of perigee:   120.2833 deg
Mean anomaly:     240.0055 deg
Mean motion:   14.81539307 rev/day
Decay rate:        6.7e-07 rev/day^2
Epoch rev:            4095
Checksum:              319

Satellite: AAUSAT2
Catalog number: 32788
Epoch time:      09029.83317857
Element set:     267
Inclination:      097.9619 deg
RA of node:       094.7536 deg
Eccentricity:    0.0016521
Arg of perigee:   120.9675 deg
Mean anomaly:     239.3137 deg
Mean motion:   14.81657858 rev/day
Decay rate:       2.10e-06 rev/day^2
Epoch rev:            4096
Checksum:              339

Satellite: DO-64
Catalog number: 32789
Epoch time:      09028.77088360
Element set:    0281
Inclination:      097.9664 deg
RA of node:       093.7831 deg
Eccentricity:    0.0016490
Arg of perigee:   122.7165 deg
Mean anomaly:     237.5637 deg
Mean motion:   14.81600376 rev/day
Decay rate:       2.63e-06 rev/day^2
Epoch rev:           04080
Checksum:              326

Satellite: CO-66
Catalog number: 32791
Epoch time:      09028.59811337
Element set:    0268
Inclination:      097.9642 deg
RA of node:       093.5171 deg
Eccentricity:    0.0016959
Arg of perigee:   121.9060 deg
Mean anomaly:     238.3814 deg
Mean motion:   14.81379363 rev/day
Decay rate:        3.1e-07 rev/day^2
Epoch rev:           04074
Checksum:              322

Satellite: RS-30
Catalog number: 32953
Epoch time:      09028.86210718
Element set:     218
Inclination:      082.5042 deg
RA of node:       343.2496 deg
Eccentricity:    0.0019903
Arg of perigee:   119.7486 deg
Mean anomaly:     240.5578 deg
Mean motion:   12.42999639 rev/day
Decay rate:        1.0e-07 rev/day^2
Epoch rev:            3108
Checksum:              307

/EX





More information about the Keps mailing list